User: anonymous   Login
Location: State Camp
(41.2367°N, 77.7828°W)
Time: 07:02:58
(UTC-04:00)
Language:

Lacrosse 5 - Orbit

View from above orbital plane
View from above orbital plane
View from above satellite
View from above satellite

Ground track
Ground track

The orbit data is extracted from the following two-line orbital elements,

1 28646U 05016A   17144.03715911 0.00000000  00000-0  00000-0 0    05
2 28646  57.0130 216.4778 0004000 126.4577 233.5423 14.51754532    04
Epoch (UTC): 24 May 2017 00:53:30
Eccentricity: 0.0004000
inclination: 57.0130°
perigee height: 717 km
apogee height: 723 km
right ascension of ascending node: 216.4778°
argument of perigee: 126.4577°
revolutions per day: 14.51754532
mean anomaly at epoch: 233.5423°
orbit number at epoch: 0

The dashed part of the orbit path shows where the satellite is in the earth's shadow,  

DLR